{"data":{"norad_id":65312,"epoch":"2026-09-20T22:11:19.419648Z","epoch_age_seconds":122172,"freshness":"FRESH","line1":"1 65312U 25187H   26263.92453032 -.00000093  00000+0  67158-4 0  9990","line2":"2 65312  50.0020 222.5319 0000934   3.5514 356.5365 13.29325787 52438","mean_motion":13.29325787,"eccentricity":9.34e-5,"inclination_deg":50.002,"raan_deg":222.5319,"arg_perigee_deg":3.5514,"mean_anomaly_deg":356.5365,"bstar":6.7158e-5,"rev_number":5243,"period_min":108.32558986535,"perigee_km":1148.6043126386,"apogee_km":1150.010439248,"semimajor_km":7527.4443759433,"source":"CELESTRAK","updated_at":"2026-09-21T09:00:15.247432Z"}}